[[{"header":{"parameterUnit":"m.s-1","parameterCategory":1,"la1":30.2992,"la2":30.254,"lo1":-89.0895,"lo2":-89.0443,"dy":0.0025,"dx":0.0025,"nx":19,"ny":19,"refTime":"2026-03-29T09:00:00:Z","depth":0,"parameterNumber":2,"parameterNumberName":"U-component_of_WINDS"},"data":[0,0,0,-5.6925,-5.6927,-5.7001,-5.7001,-5.7142,-5.7144,0,0,0,0,0,0,0,0,0,0,0,-5.6931,-5.6933,-5.6925,-5.6927,-5.7001,-5.7001,-5.7142,-5.7144,0,0,0,0,0,0,0,0,0,0,0,-5.693,-5.6933,-5.6935,-5.6928,-5.7001,-5.7001,-5.7142,-5.7069,0,0,0,0,0,0,0,0,0,0,-5.699,-5.7023,-5.6932,-5.6935,-5.6928,-5.7001,-5.7001,-5.7065,-5.7074,-5.7129,0,-5.7185,0,-5.7167,-5.7156,-5.7157,0,0,0,-5.6906,-5.7016,-5.701,-5.6935,-5.6929,-5.7001,-5.6961,-5.7069,-5.7079,-5.7141,-5.7187,-5.7191,-5.717,-5.7158,-5.7159,-5.7547,-5.755,0,0,-5.6902,-5.696,-5.7004,-5.7018,-5.7009,-5.6959,-5.6964,-5.7075,-5.7129,-5.7187,-5.7193,-5.7172,-5.7159,-5.716,-5.7544,-5.7548,0,0,0,-5.6905,-5.6958,-5.6948,-5.7014,-5.7023,-5.6962,-5.6967,-5.7124,-5.7116,-5.7194,-5.7174,-5.716,-5.7162,-5.7541,-5.7546,-5.774,0,0,0,-5.6901,-5.6959,-5.6948,-5.6984,-5.7022,-5.7074,-5.7015,-5.7108,-5.7119,-5.7173,-5.716,-5.7164,-5.7538,-5.7544,-5.7728,-5.7823,0,0,0,-5.6917,-5.696,-5.6981,-5.6987,-5.702,-5.7071,-5.7069,-5.7109,-5.7107,-5.7157,-5.7165,-5.7536,-5.7543,-5.7717,-5.7805,-5.7942,0,0,0,-5.695,-5.7152,-5.6985,-5.7203,-5.702,-5.7191,-5.7067,-5.7192,-5.7258,-5.7161,-5.7538,-5.7545,-5.7714,-5.7794,-5.7931,-5.8069,-5.8132,0,0,-5.7237,-5.7189,-5.7313,-5.7165,-5.738,-5.7175,-5.7419,-5.7425,-5.7377,-5.7493,-5.7502,-5.7732,-5.7804,-5.794,-5.8462,-5.8512,0,0,0,-5.7423,-5.7513,-5.7558,-5.7623,-5.7633,-5.7649,-5.7612,-5.7614,-5.771,-5.7448,-5.7817,-5.7858,-5.7935,-5.7998,-5.8041,-5.8105,-5.7577,-5.7576,-5.7575,-5.7913,-5.7841,-5.8041,-5.7979,-5.8045,-5.8004,-5.8051,-5.8047,-5.7955,-5.8044,-5.8078,-5.8403,-5.8479,-5.8511,-5.8578,-5.8144,-5.8145,-5.8146,-5.8146,-5.8329,-5.8445,-5.8318,-5.8467,-5.839,-5.8514,-5.8484,-5.8415,-5.852,-5.8371,-5.8436,-5.828,-5.8568,-5.8623,-5.816,-5.8158,-5.8156,-5.8154,-5.8153,-5.8642,-5.8685,-5.8684,-5.8772,-5.8849,-5.8778,-5.8885,-5.8811,-5.8742,-5.8806,-5.8835,-5.8831,-5.8819,-5.8825,-5.8826,-5.8827,-5.8828,-5.8829,-5.883,-5.8967,-5.896,-5.9059,-5.9088,-5.912,-5.9154,-5.9117,-5.9147,-5.9162,-5.91,-5.9099,-5.9,-5.8609,-5.8513,-5.8847,-5.8844,-5.8842,-5.884,-5.8839,-5.9416,-5.9303,-5.9456,-5.949,-5.9517,-5.9598,-5.9502,-5.9571,-5.9585,-5.9641,-5.9527,-5.9251,-5.9196,-5.9161,-5.9081,-5.9541,-5.9541,-5.9541,-5.9542,-5.9681,-5.9646,-5.9786,-5.9844,-5.9893,-5.9822,-5.9999,-5.9972,-5.9927,-5.9932,-5.9854,-5.9742,-5.971,-5.9674,-5.9628,-5.9552,-6.0122,-6.0123,-6.0123,-5.9953,-5.9919,-6.0084,-6.0038,-6.0054,-6.007,-6.0234,-6.0307,-6.0232,-6.0145,-5.9934,-5.991,-5.9727,-5.9671,-5.9581,-5.9511,-5.9371,0,0]},{"header":{"parameterUnit":"m.s-1","parameterCategory":1,"la1":30.2992,"la2":30.254,"lo1":-89.0895,"lo2":-89.0443,"dy":0.0025,"dx":0.0025,"nx":19,"ny":19,"refTime":"2026-03-29T09:00:00:Z","depth":0,"parameterNumber":3,"parameterNumberName":"V-component_of_WINDS"},"data":[0,0,0,-0.2909,-0.291,-0.2938,-0.2938,-0.2968,-0.2969,0,0,0,0,0,0,0,0,0,0,0,-0.2899,-0.2899,-0.2909,-0.291,-0.2938,-0.2938,-0.2968,-0.2969,0,0,0,0,0,0,0,0,0,0,0,-0.2899,-0.2899,-0.2899,-0.291,-0.2938,-0.2938,-0.2968,-0.2949,0,0,0,0,0,0,0,0,0,0,-0.2922,-0.2911,-0.2899,-0.2899,-0.291,-0.2938,-0.2938,-0.2948,-0.295,-0.2954,0,-0.2957,0,-0.2963,-0.297,-0.297,0,0,0,-0.2911,-0.2909,-0.2919,-0.2899,-0.291,-0.2938,-0.2926,-0.2949,-0.2951,-0.2956,-0.2958,-0.2959,-0.2964,-0.2971,-0.2971,-0.2988,-0.2988,0,0,-0.291,-0.2903,-0.2917,-0.292,-0.2917,-0.2925,-0.2926,-0.2951,-0.2951,-0.2958,-0.296,-0.2964,-0.2971,-0.2971,-0.2988,-0.2988,0,0,0,-0.2904,-0.2901,-0.291,-0.2919,-0.2924,-0.2925,-0.2927,-0.295,-0.2954,-0.296,-0.2965,-0.2971,-0.2971,-0.2988,-0.2988,-0.2982,0,0,0,-0.2903,-0.2898,-0.291,-0.2906,-0.2924,-0.2938,-0.2927,-0.2952,-0.2955,-0.2965,-0.2971,-0.2971,-0.2988,-0.2988,-0.2982,-0.298,0,0,0,-0.2898,-0.2898,-0.2901,-0.2905,-0.2917,-0.2938,-0.2943,-0.2953,-0.2958,-0.297,-0.2972,-0.2988,-0.2988,-0.2982,-0.298,-0.2982,0,0,0,-0.2889,-0.2896,-0.2901,-0.2909,-0.2917,-0.2934,-0.2943,-0.2956,-0.2966,-0.2971,-0.2988,-0.2988,-0.2982,-0.298,-0.2982,-0.2982,-0.2981,0,0,-0.2894,-0.2896,-0.2902,-0.2907,-0.2921,-0.293,-0.2943,-0.2959,-0.2966,-0.298,-0.2981,-0.2982,-0.298,-0.2982,-0.298,-0.298,0,0,0,-0.29,-0.2904,-0.2909,-0.2919,-0.2931,-0.294,-0.2955,-0.296,-0.2972,-0.2972,-0.2983,-0.2982,-0.2984,-0.2984,-0.2983,-0.2984,-0.2988,-0.2988,-0.2988,-0.2897,-0.2905,-0.2914,-0.2926,-0.2934,-0.2948,-0.2955,-0.2965,-0.2972,-0.2974,-0.2978,-0.2976,-0.2976,-0.2976,-0.2977,-0.2979,-0.2979,-0.2979,-0.2979,-0.2903,-0.2909,-0.2916,-0.2928,-0.2936,-0.2946,-0.2958,-0.2962,-0.2971,-0.2974,-0.2976,-0.2978,-0.2975,-0.2976,-0.2979,-0.2979,-0.2979,-0.2979,-0.2979,-0.2901,-0.2906,-0.2912,-0.2924,-0.2933,-0.2944,-0.2952,-0.2959,-0.2966,-0.2968,-0.2972,-0.2972,-0.2973,-0.2969,-0.2969,-0.2969,-0.2969,-0.2969,-0.2969,-0.2897,-0.2904,-0.291,-0.2922,-0.2927,-0.2936,-0.2948,-0.2954,-0.2962,-0.2966,-0.2966,-0.2972,-0.2973,-0.2973,-0.2969,-0.2969,-0.2969,-0.2969,-0.2969,-0.29,-0.29,-0.2909,-0.2915,-0.2928,-0.2935,-0.2944,-0.2954,-0.2959,-0.2963,-0.2967,-0.2967,-0.297,-0.2971,-0.2971,-0.2966,-0.2966,-0.2966,-0.2966,-0.2898,-0.29,-0.291,-0.2918,-0.2927,-0.2935,-0.2944,-0.2952,-0.2961,-0.2965,-0.2966,-0.2967,-0.2967,-0.297,-0.2971,-0.2971,-0.2966,-0.2966,-0.2966,-0.29,-0.2903,-0.2909,-0.2918,-0.2928,-0.2936,-0.2943,-0.2951,-0.2962,-0.2966,-0.2967,-0.2967,-0.2968,-0.2969,-0.2974,-0.2974,-0.2974,0,0]}]]